Location: Breux
(46.3269°N, 3.2993°E)
Time: 12:31:01
(UTC+00:00)

Okean 3 Rocket - Pass Details

Date: 09 April 2020
Orbit: 616 x 644 km, 82.5° (Epoch: 26 May)

Event Time Altitude Azimuth Distance (km) Brightness Sun altitude
Rises 20:48:25 0° 355° (N) 2,914 7.7 -22.5°
Reaches altitude 10° 20:50:42 10° 0° (N) 2,007 6.7 -22.8°
Enters shadow 20:54:35 49° 55° (NE) 814 4.0 -23.3°
